Wind_Speed
14 16 13 9 8 5 2 3 2 2 2 3 2 2 2 1 2 4 6 5 3 2 2 6 6 5 6 6 7 7 7 2 1 2 2 4 10 12 12 13 13 16 17 19 19 19 21 22 22 22 23 24 24 24 25 24 23 22 22 23 23 22 22 21 21 22 22 22 20 19 19 18 17 17 16 16 15 15 14 13 12 11 11 10 10 9 8 7 6 6 5 5 5 4 4 5 6
15 17 15 10 4 1 2 2 3 2 4 3 2 2 1 3 3 4 5 4 3 3 6 9 8 9 9 9 6 4 7 7 3 4 4 10 14 12 12 13 16 19 19 20 20 21 22 22 22 22 22 22 23 22 22 22 21 22 23 23 23 22 21 21 22 22 22 20 19 19 19 18 18 17 16 16 15 15 14 13 12 11 10 10 9 8 7 6 5 4 4 4 4 4 4 6 6
16 17 16 12 4 0 2 3 2 2 4 3 2 2 1 3 3 4 4 6 6 7 9 8 7 5 5 6 4 4 3 4 6 7 7 12 11 11 14 15 19 21 20 20 20 22 23 22 21 21 21 21 21 22 22 22 21 21 24 24 23 22 20 21 20 20 20 19 19 19 19 18 18 17 16 16 15 15 14 13 12 10 9 8 8 7 5 4 4 3 4 4 4 5 6 6 6
15 15 13 10 3 1 1 2 2 4 4 3 1 2 2 4 5 6 6 8 6 4 5 4 4 3 5 8 3 4 4 2 4 6 6 9 11 15 16 18 22 22 20 20 21 23 23 23 21 20 21 21 21 22 22 22 21 22 24 24 22 21 20 19 19 19 19 18 18 18 18 18 18 17 16 15 15 14 13 12 10 9 7 6 6 6 5 3 3 3 3 4 5 6 6 6 5
14 11 7 5 2 1 1 2 2 4 3 4 3 1 4 7 8 8 6 6 3 3 4 3 3 2 5 6 1 3 3 3 4 5 6 10 18 21 19 23 26 24 21 19 21 22 23 24 22 20 20 20 21 21 21 22 22 22 23 23 21 20 19 18 18 18 18 18 17 17 17 17 17 16 15 14 13 12 11 9 8 6 5 5 4 4 4 2 2 2 2 3 5 6 6 5 5
12 8 3 2 2 1 1 3 3 3 2 4 5 4 6 8 8 10 8 7 6 6 4 4 5 5 5 3 3 3 4 5 4 6 10 17 22 21 21 26 28 26 22 20 20 21 23 22 21 20 19 20 22 21 21 22 22 22 22 21 21 19 18 18 18 18 17 17 17 16 16 16 15 14 13 12 11 9 8 7 6 5 4 3 3 3 2 1 0 1 2 3 4 5 5 5 6
10 5 2 3 1 1 3 3 4 3 0 1 7 7 8 8 8 10 9 6 6 6 5 5 7 8 5 1 3 3 5 7 5 10 19 23 23 20 22 25 26 25 23 23 20 20 21 20 20 20 19 20 22 21 21 21 22 22 22 21 20 19 18 18 18 17 17 17 16 15 14 14 13 12 11 10 8 7 6 5 4 4 3 2 2 1 0 1 2 3 3 4 5 5 4 6 7
7 2 1 2 1 3 4 3 2 2 2 2 6 9 9 10 8 8 7 4 4 3 5 6 5 7 4 2 4 4 8 9 10 18 24 25 22 20 21 23 24 24 23 24 23 21 21 20 20 20 20 21 21 21 21 21 21 21 21 21 20 19 18 17 17 17 16 15 14 14 13 12 11 10 9 8 6 6 5 4 4 4 3 2 1 1 2 3 4 5 4 4 4 4 4 6 6
4 2 0 2 1 3 3 2 2 1 3 5 6 8 10 9 7 7 8 5 5 5 5 4 2 6 5 6 5 3 8 14 19 24 24 24 22 20 21 22 24 24 23 24 24 22 21 21 21 20 21 21 21 21 21 22 21 20 19 19 19 18 18 17 17 16 15 14 13 13 12 12 11 9 8 7 6 6 5 5 5 4 3 3 2 3 4 5 6 6 5 4 4 4 5 6 6
4 3 1 2 2 4 3 2 1 1 3 5 6 9 9 7 6 7 10 8 7 5 5 6 6 8 8 6 4 2 8 18 23 23 23 23 21 21 22 23 24 24 24 23 23 21 20 20 19 19 19 20 21 21 21 21 20 20 19 18 18 18 18 17 16 15 14 14 13 12 11 11 10 9 8 7 7 6 6 6 6 4 3 3 4 4 5 6 7 6 5 5 5 5 6 7 7
2 2 2 3 4 4 3 2 2 3 3 5 5 6 6 7 8 7 10 9 5 6 7 9 9 9 9 5 2 5 14 22 23 22 22 22 21 22 24 23 22 23 24 24 22 21 19 19 18 18 19 20 21 21 20 20 20 19 19 18 17 17 17 16 16 15 15 14 13 12 11 11 10 9 9 8 8 8 7 6 5 4 4 4 5 6 6 7 7 7 7 7 7 8 8 8 9
1 2 2 4 2 3 4 4 4 4 4 5 5 4 4 7 9 8 11 10 6 8 5 4 7 7 7 4 2 8 16 20 21 22 21 21 21 22 24 23 22 22 23 23 22 21 19 19 19 18 19 20 20 20 19 19 18 18 18 17 17 16 16 16 16 15 15 14 13 12 11 11 10 10 9 9 9 8 7 6 5 4 4 5 6 6 7 7 8 8 8 9 9 10 10 10 9
2 2 4 3 2 4 4 4 5 6 3 4 5 4 6 6 8 10 10 9 8 8 3 4 9 5 5 4 4 7 11 17 21 21 21 20 20 21 22 22 22 22 22 22 21 20 19 18 18 17 17 18 18 18 17 17 17 16 16 16 16 16 16 17 16 15 15 14 13 12 11 10 10 10 9 9 8 8 7 6 5 5 5 6 7 7 8 8 9 10 10 11 11 12 12 11 10
2 2 4 2 1 4 4 4 5 6 3 3 4 5 5 2 7 11 11 11 5 5 6 7 9 7 6 6 6 5 9 17 21 20 20 20 20 20 20 20 21 21 21 21 20 20 19 18 18 17 16 16 16 15 15 15 14 15 15 15 15 16 17 16 16 15 14 13 12 11 10 9 9 9 9 8 8 8 7 7 7 6 7 7 7 8 9 10 11 11 12 12 13 13 13 12 10
4 1 4 3 2 3 3 4 6 6 3 4 5 6 3 2 6 8 10 11 3 3 8 7 5 6 6 7 7 8 13 21 21 20 20 20 20 20 19 20 20 21 21 20 20 19 19 19 18 17 16 16 16 14 14 13 13 14 14 15 15 15 16 15 15 14 14 13 11 10 9 9 9 9 9 9 8 8 8 8 8 7 8 8 9 9 10 11 12 13 13 13 14 13 13 13 10
3 2 3 2 3 3 3 4 5 5 3 5 7 5 6 4 4 4 4 6 6 7 5 4 3 3 7 6 8 15 20 24 22 20 21 20 20 19 19 20 20 20 20 20 20 19 19 19 18 17 17 16 16 15 14 14 13 13 14 13 13 14 14 14 14 13 13 11 10 9 9 9 9 9 9 9 8 8 9 9 8 8 9 10 11 11 12 13 13 13 13 13 13 13 13 13 10
3 2 1 0 3 5 4 6 5 5 4 7 7 5 7 5 3 3 5 7 11 9 2 2 1 3 8 8 15 23 25 24 23 21 21 21 20 19 19 19 19 19 19 19 19 20 19 20 19 18 17 17 16 15 15 14 13 13 13 13 13 13 13 13 13 13 12 11 10 9 9 9 10 10 10 9 9 9 10 9 9 10 10 11 11 12 13 14 13 13 12 12 12 11 11 11 9
3 2 2 1 4 5 6 8 7 6 8 10 9 7 10 10 5 5 7 7 9 7 4 4 5 6 10 16 24 26 26 25 23 22 20 20 19 18 18 19 19 18 19 19 19 20 20 20 20 19 19 18 17 16 16 15 14 14 14 14 14 14 13 13 13 12 11 11 10 10 10 11 10 10 10 10 10 10 10 10 11 11 11 11 12 12 13 13 12 11 11 10 10 10 10 11 10
3 2 3 3 5 4 4 9 8 8 11 11 9 8 8 8 9 6 7 8 8 7 5 6 7 8 12 20 25 25 26 25 24 23 20 20 19 18 18 19 19 19 20 20 21 21 21 21 20 20 20 19 18 17 17 16 16 15 15 14 14 14 14 14 13 12 12 11 11 11 11 11 11 10 10 10 10 10 11 12 12 11 12 12 13 13 13 12 11 10 10 10 9 10 11 12 11
4 3 2 5 6 3 2 9 10 10 12 12 10 8 5 5 8 6 8 11 7 7 8 9 9 10 13 16 21 25 24 23 24 23 20 20 19 19 20 20 21 22 23 22 22 21 21 22 21 21 21 20 19 18 18 17 16 16 16 15 15 15 15 15 14 13 13 12 12 12 12 11 11 11 11 12 12 12 12 12 12 12 12 13 14 13 12 12 11 11 10 10 9 9 10 10 10
2 4 5 5 5 4 3 9 10 9 13 14 11 8 6 5 5 7 11 10 4 7 10 12 15 14 15 15 18 22 21 20 22 21 19 19 18 19 19 20 21 22 24 22 21 22 22 23 22 22 21 21 20 19 18 17 17 16 16 16 15 15 15 16 15 14 14 13 13 13 13 12 11 12 13 13 13 12 12 12 12 12 12 12 12 12 12 12 11 11 10 10 9 8 8 9 9
2 5 7 5 6 4 5 9 10 10 11 12 12 10 8 6 6 9 15 10 6 10 11 12 17 18 18 17 18 19 18 18 19 19 19 19 19 19 18 18 18 20 22 21 21 22 23 23 23 23 22 21 20 19 18 18 17 17 16 17 16 16 15 16 16 15 15 15 14 14 14 13 13 13 13 13 13 13 12 12 12 12 11 11 12 12 13 12 11 11 11 10 10 7 6 8 9
3 5 5 6 6 6 7 10 11 11 12 13 13 10 8 8 5 9 13 6 4 8 10 12 15 19 20 19 17 17 17 17 18 19 20 20 21 20 20 21 20 21 21 22 22 22 23 24 24 23 23 22 21 19 18 17 17 17 17 17 17 16 16 16 16 16 16 15 15 15 15 15 15 14 13 13 13 13 12 11 12 12 11 11 12 12 12 12 12 12 11 11 10 7 5 8 9
4 5 4 7 7 7 10 11 11 13 15 13 10 10 11 12 7 9 9 4 0 8 11 12 14 19 20 16 15 15 16 17 19 22 23 23 24 24 24 24 23 23 23 23 24 24 24 25 25 24 24 23 22 21 18 18 18 17 18 19 18 16 16 16 17 17 16 16 16 16 16 16 15 14 14 13 13 13 12 11 11 12 12 12 12 12 11 11 12 12 11 10 9 7 7 10 11
5 6 4 6 6 7 10 12 12 12 11 9 11 12 13 10 7 9 7 1 5 11 12 13 14 16 16 15 15 13 13 15 18 21 22 23 24 24 23 24 25 25 26 25 25 26 26 26 26 26 25 25 24 23 21 19 19 18 19 20 19 17 16 17 17 17 17 17 16 16 16 16 15 15 14 12 12 12 11 12 12 13 14 14 13 12 11 11 12 11 10 10 8 9 10 12 14
7 8 4 6 6 8 11 12 13 11 7 8 12 11 8 5 7 6 4 4 9 12 13 14 14 15 14 13 14 13 13 15 17 20 20 21 22 21 22 23 24 26 28 26 25 27 27 26 26 26 26 25 24 24 23 20 20 20 20 20 20 18 18 17 17 17 17 17 16 16 16 15 14 14 14 12 12 12 11 12 13 14 15 15 14 13 12 13 12 11 11 11 10 11 12 14 16
6 7 4 6 7 7 11 12 11 8 7 11 14 8 5 6 6 3 4 7 12 13 13 13 14 14 14 13 12 12 13 15 19 19 19 19 21 22 23 23 24 26 27 25 26 26 26 25 25 25 25 24 24 24 23 20 20 21 20 20 20 19 19 18 18 18 17 17 16 16 17 16 15 15 14 13 13 12 12 13 13 14 15 15 15 14 14 14 12 11 12 12 12 14 14 16 17
5 8 6 5 8 7 9 12 10 8 5 8 11 7 4 4 3 4 7 10 14 15 14 14 14 12 12 13 11 10 11 16 19 18 18 19 21 23 23 24 25 25 25 26 27 26 25 25 24 24 24 23 23 23 23 21 20 20 20 20 20 20 20 20 19 19 19 18 17 17 17 17 17 17 17 16 14 13 13 13 13 14 14 15 15 15 15 14 12 12 12 12 13 15 16 17 16
6 9 9 5 8 7 6 9 9 9 5 7 12 7 2 6 5 3 9 11 13 14 14 13 13 11 11 11 9 8 11 15 17 17 19 21 21 22 23 25 26 24 24 26 26 26 26 26 25 24 24 24 24 24 24 23 21 20 20 20 20 20 20 20 20 19 20 20 19 18 18 18 18 19 18 17 16 15 14 14 14 14 14 14 15 15 15 14 13 12 12 12 13 14 15 14 13
5 5 7 6 7 4 4 4 7 8 6 11 12 2 6 9 5 4 10 12 13 12 12 12 11 10 10 9 9 8 11 13 15 17 20 21 22 22 23 25 26 25 24 24 26 27 27 27 26 25 25 25 25 24 24 22 21 20 20 20 20 21 21 21 21 20 20 20 19 19 19 19 19 19 19 18 17 16 16 15 15 14 14 14 14 14 13 13 12 11 11 11 11 12 11 10 10
5 4 4 4 4 5 4 3 8 8 6 9 8 2 7 7 5 7 10 13 15 13 12 12 10 10 9 9 9 9 10 13 16 19 21 22 23 23 23 24 26 26 25 25 27 28 28 28 27 26 26 26 26 24 23 22 20 20 20 20 20 22 22 22 21 21 20 19 19 20 19 19 19 20 19 19 18 17 16 16 15 14 13 13 12 11 11 11 10 9 10 10 10 9 8 8 9
2 5 3 1 3 5 4 4 8 9 8 6 4 2 5 4 6 8 9 12 14 14 13 12 11 11 10 9 9 9 9 12 17 19 21 23 23 23 24 24 26 27 27 27 28 28 28 28 28 27 27 27 26 26 24 22 21 21 21 21 21 22 22 22 21 21 20 18 19 20 20 20 21 21 20 19 19 18 17 16 13 12 12 11 10 10 9 9 8 8 8 8 9 9 9 8 8
2 2 6 5 4 4 3 3 6 8 10 7 3 3 2 2 7 9 10 12 12 11 12 13 12 11 11 9 9 9 8 10 13 17 21 23 24 25 25 25 27 28 28 28 28 28 28 29 28 28 28 27 26 26 25 23 22 22 21 22 23 23 24 22 20 21 21 20 19 19 19 20 22 22 20 19 20 19 17 14 11 10 10 10 9 9 8 7 7 7 6 6 8 10 11 11 10
3 1 4 4 4 6 5 4 5 5 9 8 3 3 3 3 8 10 11 13 12 11 11 12 11 10 10 9 9 9 9 10 10 15 20 22 24 25 26 26 27 28 29 29 29 29 29 29 29 29 29 27 26 26 25 24 23 23 22 22 23 24 24 21 19 20 21 19 18 18 17 18 20 21 19 19 18 17 15 13 10 9 9 8 8 8 8 7 7 7 6 6 8 10 12 12 12
6 5 5 3 3 5 7 7 8 9 9 8 5 4 5 4 9 11 10 12 12 11 12 11 11 10 10 9 9 9 10 11 12 16 21 23 24 26 26 27 27 28 29 29 30 29 29 28 28 28 28 27 27 27 26 25 24 23 24 23 21 20 19 16 16 18 17 16 17 16 16 17 18 18 18 17 15 14 13 11 9 8 7 6 7 8 8 8 7 7 7 8 9 10 11 12 12
9 8 7 8 6 8 9 5 6 13 10 8 8 6 5 7 10 12 11 11 11 10 10 9 10 10 9 9 9 9 11 11 14 20 23 25 26 27 27 27 27 28 29 29 29 29 29 28 28 28 28 28 27 27 26 25 24 23 23 20 17 17 15 13 14 15 13 13 14 14 15 15 15 15 15 14 12 11 11 10 7 6 5 5 6 7 8 8 8 8 10 10 10 11 11 10 10
8 6 5 7 7 7 6 1 1 9 8 8 7 3 4 8 11 13 11 10 10 10 10 10 10 9 9 10 10 10 11 12 14 20 23 25 27 27 27 27 27 27 28 28 28 29 29 29 29 29 28 28 28 27 26 25 24 22 20 19 17 16 15 14 14 14 13 11 12 13 13 12 13 12 12 11 10 10 10 8 6 4 4 5 6 6 7 7 8 9 10 10 10 11 10 9 9
8 6 5 5 5 4 2 0 2 7 6 5 4 3 4 6 9 10 10 12 13 14 14 12 12 11 9 10 12 11 10 9 10 14 19 22 25 26 27 26 26 26 27 28 29 29 30 29 29 29 29 29 29 28 26 26 26 24 22 21 20 18 16 16 15 15 14 12 10 10 10 10 12 11 10 10 10 10 10 9 5 4 5 5 5 5 6 5 6 6 6 8 9 9 9 9 7
7 5 6 4 4 3 3 3 4 6 4 3 2 4 3 3 6 9 11 14 13 12 13 12 12 11 10 11 12 11 10 8 8 10 15 20 23 25 26 25 27 28 28 29 30 30 30 30 30 30 29 30 29 28 27 27 26 25 23 21 20 18 17 16 15 14 13 12 10 10 11 10 10 10 10 10 12 13 11 8 7 6 5 5 5 5 4 3 3 3 5 7 7 7 8 7 5
6 5 6 4 4 5 5 3 5 5 2 1 4 3 2 1 5 7 11 11 7 7 10 9 10 12 13 13 11 11 12 11 10 10 12 17 20 22 24 25 27 28 28 29 29 30 30 31 32 31 31 31 30 29 29 28 26 24 23 20 18 17 16 15 15 14 13 12 11 12 11 10 11 12 13 14 14 14 11 10 8 6 5 6 6 5 4 4 3 4 4 5 5 4 4 4 4
5 5 7 4 5 8 5 4 7 4 2 2 6 4 5 3 7 8 9 9 8 8 9 10 10 12 11 10 11 12 13 12 12 11 11 14 18 21 24 26 27 27 28 29 31 31 32 33 33 33 33 31 30 30 29 28 26 24 22 18 15 15 14 14 15 16 15 13 13 13 13 13 13 15 16 16 15 14 13 10 8 7 7 7 7 6 5 5 4 3 3 3 3 3 2 2 2
4 6 8 9 9 7 6 10 9 5 2 4 5 2 5 4 8 11 8 9 11 9 10 13 12 12 10 9 11 12 12 12 12 13 12 13 17 20 23 25 26 27 29 32 33 33 34 34 34 34 33 32 31 30 28 28 27 25 23 21 18 16 15 15 16 17 16 16 14 14 15 15 16 16 17 16 15 14 12 10 9 8 9 8 7 5 4 3 2 2 2 2 1 1 1 2 3
4 6 9 10 9 9 10 12 9 5 4 5 7 6 5 4 6 11 9 10 13 11 11 14 13 12 12 11 12 12 12 12 12 12 12 14 17 19 21 25 27 28 31 32 32 33 34 34 34 34 33 32 31 30 29 29 28 27 26 24 23 21 19 18 17 15 15 15 14 13 14 16 17 17 17 16 15 13 12 11 10 9 8 7 6 5 4 4 3 3 2 2 0 1 1 1 3
4 6 11 11 9 11 12 11 8 5 2 2 6 5 2 5 6 9 11 10 11 12 14 15 14 14 14 14 14 14 14 13 12 12 13 14 18 22 24 27 30 31 31 31 31 33 34 34 34 34 33 32 31 30 30 29 29 28 27 26 25 24 21 19 16 15 14 13 13 14 15 16 18 18 16 15 15 14 13 12 11 10 9 8 7 7 6 5 5 4 3 2 1 2 1 1 1
5 6 10 10 9 10 11 10 6 4 4 1 4 3 2 6 5 3 10 11 12 16 18 18 17 17 16 16 16 15 15 14 13 13 14 15 20 25 28 29 31 31 30 30 32 33 34 35 35 34 33 32 32 31 30 30 30 29 28 27 26 24 22 19 17 17 16 14 15 16 16 17 18 17 16 16 15 14 14 13 12 11 9 9 9 8 7 7 6 6 4 3 2 2 2 2 2
5 7 8 6 5 5 7 7 4 4 4 5 7 6 5 6 4 3 7 9 14 17 18 18 18 17 17 16 17 16 14 12 13 13 14 17 22 26 27 28 30 30 30 31 32 33 33 34 34 34 33 33 32 32 31 31 30 29 29 28 27 25 23 20 17 18 18 17 18 18 17 18 17 17 16 15 15 14 14 13 12 10 9 9 9 8 7 7 7 6 5 4 3 2 2 1 1
6 7 7 7 6 4 3 1 3 4 1 6 9 12 9 5 4 4 7 11 17 17 14 15 16 17 17 17 17 17 14 12 12 13 14 18 23 24 24 26 28 29 30 31 31 32 33 34 34 34 34 33 33 33 32 31 31 30 30 29 28 27 24 21 20 21 20 20 20 20 19 19 18 17 16 15 14 14 14 13 11 9 8 8 8 7 7 7 6 6 5 4 4 2 1 1 1
7 5 5 4 3 4 4 5 4 3 4 7 8 9 7 6 6 6 11 16 17 16 15 15 18 19 19 17 16 16 15 13 12 13 13 14 16 18 22 25 27 29 29 30 31 32 32 34 35 34 33 33 34 33 33 32 32 32 32 31 30 28 26 24 24 24 24 24 23 22 21 20 18 17 16 16 16 15 15 13 11 8 8 9 8 7 7 7 6 6 5 4 3 2 1 2 2
5 5 6 5 1 2 1 1 0 3 5 6 6 8 4 7 9 8 11 14 13 15 17 17 18 20 19 18 16 14 13 13 13 13 12 12 12 15 20 24 26 28 30 31 31 31 32 34 35 35 35 34 34 34 34 33 33 33 33 33 31 29 27 26 26 26 26 26 25 24 23 22 20 19 18 18 17 16 15 14 11 8 7 8 8 8 7 7 6 5 5 4 3 3 3 3 3
5 6 6 5 3 2 3 3 0 2 5 4 5 9 4 5 7 10 14 17 17 17 17 15 12 14 17 17 15 14 14 15 14 13 13 13 13 16 21 25 26 28 31 32 32 33 33 34 36 36 36 36 35 35 35 34 34 34 33 33 31 29 28 27 27 27 27 26 26 25 24 23 22 21 20 19 16 16 16 14 11 8 8 8 7 7 7 6 6 5 5 4 4 5 5 5 5
6 5 6 6 5 5 4 3 3 4 3 2 3 6 5 3 4 8 13 15 14 14 13 11 6 7 11 12 11 12 14 14 13 13 14 14 16 20 23 25 27 29 31 32 33 34 34 35 37 38 38 37 37 36 36 35 34 34 33 32 30 28 28 27 26 26 26 26 26 24 23 23 23 21 20 18 16 15 15 14 12 10 8 8 7 6 6 6 5 5 4 4 5 6 6 7 7
5 3 5 5 7 6 2 3 6 5 2 1 2 3 5 5 6 6 4 6 8 11 10 10 8 7 9 9 11 12 13 13 13 13 14 15 17 22 24 25 27 28 29 31 32 34 35 37 38 40 40 39 37 36 36 35 35 34 33 32 30 28 28 27 26 25 25 25 24 23 22 22 22 21 20 18 16 15 15 15 14 11 9 8 7 6 6 6 5 5 5 6 6 5 5 5 6
3 3 4 5 6 7 3 2 2 3 2 2 2 3 4 2 6 7 2 4 7 8 9 12 11 8 10 11 12 12 13 14 14 14 15 15 17 21 25 26 27 28 29 32 35 37 39 39 38 39 40 37 36 36 37 36 35 35 34 32 30 29 29 27 26 25 25 24 23 22 21 21 21 21 20 19 17 16 16 16 15 12 11 9 9 8 7 6 7 7 7 8 8 7 6 7 7
5 5 7 3 3 3 3 2 1 2 3 4 2 5 3 1 3 6 3 6 10 9 8 10 8 9 12 12 12 14 15 15 15 15 15 15 16 20 25 27 29 32 33 36 39 40 39 38 38 38 37 37 37 37 37 36 36 35 33 32 31 31 30 28 26 25 24 24 23 23 21 21 21 21 20 18 18 18 18 17 15 13 12 11 11 11 9 8 9 9 9 10 10 10 10 10 10
3 5 7 5 3 2 1 3 2 1 3 3 3 3 3 4 5 5 5 9 13 11 7 7 8 11 14 14 14 15 14 13 13 14 14 14 15 19 24 27 29 32 35 37 38 37 35 35 36 36 36 36 34 33 34 35 35 35 35 35 34 33 31 30 27 25 25 25 25 23 21 21 21 21 20 19 19 19 19 17 16 14 14 13 13 13 11 10 11 11 11 11 11 11 12 11 11
2 3 4 3 3 5 3 3 4 4 4 3 3 3 3 6 7 7 10 12 13 11 8 8 12 15 14 12 12 13 13 13 13 14 14 14 15 21 27 30 31 34 36 37 36 35 35 36 35 35 34 33 31 31 34 35 36 36 37 37 37 35 34 31 29 27 27 27 25 23 21 21 22 21 20 20 19 19 19 18 16 16 15 15 15 13 12 12 13 13 12 12 12 12 12 12 12
3 4 5 2 1 3 2 2 4 4 4 4 3 3 5 7 6 9 13 12 12 12 11 11 12 13 12 10 11 12 12 13 14 14 14 14 16 21 28 30 32 33 34 34 33 33 36 36 34 34 34 32 32 34 35 36 37 37 38 39 38 37 35 33 31 29 28 27 24 22 22 23 23 22 21 20 19 19 19 18 17 17 17 16 15 14 13 14 14 14 13 12 12 12 13 13 13
8 6 6 6 4 4 3 4 1 2 3 5 5 4 7 7 6 9 12 10 10 12 12 11 11 11 11 10 13 14 13 13 14 14 14 14 14 19 25 27 28 28 29 31 31 33 34 34 35 36 35 35 36 36 37 38 37 37 38 38 38 38 37 36 33 30 29 27 23 22 23 24 24 23 20 19 19 19 19 19 19 19 18 17 16 15 14 13 13 13 13 12 11 12 13 14 14
Wind_Direction
137 138 137 151 171 156 62 28 53 360 60 92 46 42 45 53 102 105 111 121 99 11 41 75 79 87 100 112 120 92 40 14 194 132 123 131 135 134 126 124 127 129 132 133 137 146 149 152 155 157 156 155 155 155 155 153 150 150 150 152 152 149 145 143 143 143 144 145 146 147 147 148 149 149 150 149 149 150 151 151 154 155 153 151 151 154 155 152 142 128 118 111 98 91 76 53 39
139 140 140 146 164 90 29 32 67 12 55 75 9 26 37 27 54 92 117 118 91 100 88 87 86 84 101 118 123 87 42 21 71 99 95 125 127 129 130 129 132 130 132 136 142 149 150 151 155 156 156 157 157 156 156 154 152 151 149 152 151 149 146 144 145 144 144 147 148 149 150 152 153 154 154 153 153 155 155 157 160 160 156 154 155 156 154 149 138 127 115 104 85 68 53 46 41
140 144 146 152 164 106 54 35 93 83 70 87 9 330 54 63 60 64 78 95 111 122 104 99 89 76 93 93 47 43 68 42 82 96 112 133 128 130 138 136 138 135 138 144 147 150 148 150 153 154 156 158 159 156 156 155 154 154 150 152 151 149 148 146 147 146 146 148 150 152 153 154 155 157 157 157 159 160 162 163 165 162 159 156 156 152 146 141 133 120 101 83 65 50 38 41 41
141 146 154 166 162 142 115 53 126 111 104 131 87 308 86 102 102 86 87 103 122 118 93 93 66 14 72 87 69 63 95 91 89 101 123 145 135 138 143 140 140 137 142 150 150 149 146 147 151 153 156 158 159 156 156 156 156 155 151 150 150 149 148 148 149 149 149 150 153 155 156 157 158 159 160 161 163 165 166 167 167 163 161 157 152 145 141 138 128 105 83 73 65 50 35 27 23
140 142 151 170 116 127 127 87 115 98 145 165 132 183 123 123 118 108 99 90 81 61 75 99 81 12 71 84 130 84 98 113 104 98 110 140 140 139 142 139 137 135 143 152 149 147 143 144 148 152 156 158 159 157 155 156 156 155 151 149 150 150 149 150 151 152 152 154 156 158 159 160 161 161 162 165 166 167 166 167 167 162 161 156 147 140 138 133 121 83 62 62 59 49 32 3 345
139 134 101 84 96 166 107 91 101 91 188 172 132 160 142 135 129 118 98 69 52 55 68 84 107 111 80 49 56 100 161 130 109 113 126 141 142 140 141 140 137 136 144 150 147 146 143 143 149 151 155 158 159 157 154 154 154 154 153 152 152 153 153 154 154 155 156 158 159 160 161 162 162 162 165 169 169 167 164 165 162 160 161 156 150 140 132 127 80 30 31 31 32 40 23 335 328
143 133 47 56 78 76 94 113 131 121 259 162 141 150 147 140 132 121 108 88 63 50 65 90 116 107 81 58 73 74 129 123 117 134 141 145 144 142 143 141 136 137 143 146 147 149 146 146 151 151 152 156 158 156 155 154 155 156 156 154 155 156 156 157 158 158 159 160 162 164 164 164 165 164 168 172 171 166 162 159 154 161 166 169 170 151 202 307 328 345 358 3 6 15 357 321 326
137 120 39 88 40 34 85 98 122 147 82 99 138 140 143 140 137 125 117 111 99 81 96 113 113 91 64 70 92 55 87 117 133 137 142 145 144 143 145 143 138 138 141 144 147 150 147 146 150 150 150 152 155 154 155 156 158 159 157 156 157 158 158 160 162 163 164 165 166 166 167 169 170 170 172 172 169 166 160 156 160 172 178 191 221 274 297 309 318 326 337 345 349 346 327 318 325
91 52 62 87 74 49 71 44 37 123 107 120 126 131 138 138 141 127 113 95 108 112 108 131 95 94 101 80 94 55 82 123 136 137 142 143 144 144 147 146 141 141 142 143 145 147 146 146 148 149 150 152 153 154 157 159 162 162 159 157 159 161 162 164 166 168 169 168 166 166 170 173 174 175 173 170 168 168 167 170 177 185 196 217 253 283 298 305 309 314 325 333 333 325 313 311 317
41 24 130 83 77 74 71 25 39 75 101 125 126 136 142 139 133 122 117 110 110 104 92 91 79 107 119 96 89 74 114 134 137 139 144 144 145 147 149 147 144 143 143 143 143 145 145 145 146 149 154 154 155 157 159 161 163 164 162 161 162 163 166 169 170 169 167 165 165 167 171 173 175 174 171 171 171 176 180 184 187 192 209 238 268 288 298 302 306 309 314 320 319 314 308 308 312
32 330 124 77 69 105 136 102 96 103 109 111 118 137 139 136 121 109 110 107 93 100 114 94 91 114 109 97 83 111 133 138 139 143 148 149 150 152 151 147 146 145 144 145 144 145 145 145 147 152 156 156 158 159 159 160 162 163 164 164 166 168 170 173 171 168 167 166 168 169 172 173 174 173 174 177 179 185 189 191 194 208 232 258 279 291 298 302 306 307 309 311 311 309 307 307 311
78 277 83 86 110 151 160 136 125 120 126 125 142 156 139 138 123 122 121 118 115 118 137 114 132 138 98 97 111 126 139 143 147 150 152 154 155 155 152 149 149 149 147 148 148 148 149 148 149 153 155 156 159 159 159 160 162 164 164 166 168 172 175 174 172 170 171 170 169 171 173 175 177 179 181 184 188 192 193 198 210 233 250 269 285 291 298 303 303 304 305 305 306 304 304 304 307
111 185 81 87 160 140 137 132 137 126 136 160 163 158 143 142 131 135 122 118 132 134 155 138 147 144 90 110 120 135 148 153 154 152 155 156 157 156 152 152 153 152 151 152 151 150 151 152 152 153 153 155 158 160 161 161 163 166 167 169 171 175 176 175 174 173 174 173 172 173 176 179 183 187 188 191 196 197 200 210 224 242 256 272 288 295 300 302 301 302 302 301 302 302 304 304 310
148 182 102 105 103 121 134 124 147 144 171 191 156 157 156 147 144 142 123 123 144 148 134 130 136 111 104 133 134 160 162 160 159 155 158 156 157 157 154 155 155 155 155 156 154 153 155 156 156 155 156 157 160 163 163 163 166 169 171 174 176 177 177 177 177 176 176 175 176 178 180 184 188 193 195 198 202 204 211 221 230 242 257 273 285 292 296 299 299 301 302 303 305 306 308 307 316
173 145 93 115 108 114 157 156 154 153 186 183 156 160 133 62 140 139 131 135 155 151 123 127 136 106 146 168 159 176 165 161 161 157 159 156 157 158 158 157 158 161 160 160 159 159 160 160 159 159 162 163 165 167 165 168 171 175 176 177 179 181 182 181 181 181 180 180 181 183 183 185 193 199 201 207 211 213 220 229 239 252 269 280 286 289 294 298 300 303 305 307 310 311 311 310 323
165 63 70 102 150 155 183 159 136 148 190 169 159 147 97 85 140 125 122 121 125 149 132 142 182 134 162 170 154 161 160 161 161 160 159 155 157 158 160 160 161 165 165 165 164 165 164 165 165 165 167 167 170 170 170 173 175 180 180 178 179 182 184 184 184 184 184 184 186 187 187 190 198 205 211 218 220 224 232 240 254 269 280 286 288 290 296 300 303 308 309 312 315 317 318 318 330
117 66 50 97 178 179 175 165 158 166 169 156 165 151 121 137 159 87 84 99 127 145 107 104 102 122 144 141 146 154 157 160 160 160 157 156 159 159 161 163 164 168 172 171 169 169 169 170 171 171 173 173 175 175 175 177 178 182 182 181 181 183 185 185 186 185 186 187 189 193 195 202 209 214 220 225 228 235 244 257 271 279 285 289 291 294 300 304 305 308 310 313 316 320 322 322 333
136 117 145 213 201 191 180 175 173 153 153 164 173 162 148 151 147 115 99 100 123 119 76 85 65 86 120 133 144 153 157 159 161 159 158 161 163 162 164 168 170 173 176 177 176 175 175 176 177 178 180 181 182 180 179 181 182 184 185 186 185 186 187 188 190 188 191 191 194 199 205 214 218 223 229 232 237 245 255 268 276 282 287 290 290 296 304 305 304 303 305 309 313 319 323 327 339
167 126 141 223 205 206 186 165 164 155 158 163 165 160 158 151 139 138 131 133 135 112 97 98 91 104 121 135 146 155 158 159 163 161 164 169 168 167 168 172 176 178 180 182 182 181 182 182 183 185 186 187 188 186 185 185 185 186 188 190 188 188 190 191 193 193 197 199 202 208 214 223 225 229 236 241 246 251 258 266 272 279 283 285 287 293 302 304 303 300 301 306 312 320 325 330 339
179 133 169 245 203 202 184 162 169 163 154 151 157 155 154 164 145 144 143 143 152 148 146 136 134 143 141 146 152 158 161 163 165 166 170 172 173 173 173 176 179 183 184 185 185 186 187 187 188 190 190 190 191 190 191 191 189 188 190 193 193 193 194 194 196 198 203 206 211 216 221 227 230 234 241 247 252 254 257 263 269 276 280 284 287 291 298 302 301 300 300 303 308 316 322 327 332
166 160 195 235 181 178 188 168 167 158 153 150 152 146 149 176 148 141 142 139 178 189 181 163 154 156 153 155 158 161 164 165 168 170 172 172 176 179 179 181 182 186 188 187 188 189 191 191 193 194 193 192 193 194 195 196 195 193 194 196 198 200 201 200 201 205 208 212 216 220 226 231 233 238 244 250 256 258 260 266 271 278 283 285 287 291 300 302 298 296 298 299 302 310 322 329 330
154 202 209 200 157 174 188 168 161 155 151 145 150 155 157 163 151 160 156 154 200 198 191 169 154 157 159 160 160 163 166 168 171 172 173 174 177 179 181 183 185 190 191 192 191 191 194 196 197 197 197 196 196 198 199 200 201 200 201 202 203 205 209 210 210 213 215 219 221 223 229 235 237 241 247 251 258 261 263 268 273 280 285 287 288 293 302 303 295 292 293 295 299 308 328 339 338
196 239 223 196 172 166 167 163 159 149 150 158 162 157 145 148 162 176 171 178 217 174 165 161 156 155 156 160 162 167 170 171 173 174 177 177 178 179 180 182 185 191 194 197 197 195 197 198 200 201 201 200 200 202 203 204 206 207 208 209 208 208 213 217 218 219 220 223 227 229 234 239 243 245 249 253 257 260 264 267 272 279 283 285 287 293 301 302 298 292 288 290 296 303 329 346 346
215 242 219 199 191 168 161 158 158 156 163 167 149 139 154 165 166 175 193 259 145 135 139 148 149 149 153 162 169 173 173 174 175 177 180 180 182 183 182 183 185 190 194 198 199 198 199 199 202 204 204 204 205 206 206 208 210 210 210 212 214 213 217 221 222 222 222 224 228 232 237 242 245 247 248 252 255 258 263 266 270 274 278 281 281 288 300 304 302 293 285 287 293 299 317 337 342
222 231 209 182 185 170 161 151 155 163 163 148 135 153 173 172 149 163 193 258 123 129 133 142 145 150 158 167 171 174 176 177 177 179 182 184 185 184 185 185 185 189 193 196 197 198 199 200 202 206 206 206 208 209 209 210 213 214 212 214 217 219 223 225 224 225 224 225 228 233 237 240 243 245 246 247 250 255 260 264 267 269 274 278 277 283 295 304 304 296 287 286 293 305 316 327 334
223 218 193 165 172 163 154 147 154 158 151 139 145 163 177 147 118 151 191 134 129 129 136 146 150 158 166 171 174 174 178 180 180 181 184 186 185 185 188 188 188 192 195 196 196 197 199 201 204 206 207 208 211 213 213 213 215 217 217 217 220 224 227 228 227 228 228 229 230 232 235 237 240 243 245 245 247 251 256 260 263 267 271 275 276 279 289 300 304 298 295 294 300 312 319 323 327
210 192 166 152 150 145 147 144 148 145 150 160 155 157 163 145 133 175 203 147 135 133 143 153 156 165 170 173 177 177 181 185 184 182 182 185 186 190 192 191 193 196 197 197 198 200 200 203 207 207 208 210 213 216 218 217 217 218 218 219 222 225 228 229 229 230 231 232 233 233 234 236 240 243 244 245 247 251 255 259 262 267 270 271 273 276 285 297 302 301 300 300 303 311 318 320 323
164 139 88 100 115 111 137 140 146 141 149 166 141 116 121 159 218 203 170 152 144 142 152 161 162 171 173 175 179 179 184 188 186 183 184 187 189 193 194 194 196 197 197 198 201 202 202 205 208 209 210 212 216 220 222 222 221 221 220 221 224 227 229 229 230 232 233 235 238 239 240 240 243 247 247 246 248 252 257 263 266 268 271 271 271 274 285 298 305 305 302 301 303 308 314 317 320
134 121 93 90 93 99 138 135 150 149 142 146 120 86 156 203 246 189 153 151 147 146 156 165 167 171 174 178 181 182 188 187 188 192 193 192 192 195 197 198 200 199 199 200 202 203 205 208 209 211 212 213 218 220 221 223 225 227 227 225 227 229 229 230 231 233 235 238 244 248 249 249 249 251 251 251 252 256 260 264 266 268 272 274 272 277 288 299 305 306 303 302 301 304 309 315 323
108 100 105 111 85 117 183 133 142 139 148 153 132 125 224 217 239 167 153 149 145 149 161 169 170 172 176 180 183 187 192 189 192 198 198 195 195 199 201 203 203 202 201 200 202 205 207 208 209 211 211 215 219 219 220 222 225 230 232 232 232 233 233 233 235 238 241 245 251 257 259 257 256 255 255 257 258 260 261 263 267 269 273 275 276 280 286 294 299 303 306 304 302 304 312 324 336
112 97 86 109 127 183 210 157 144 137 176 163 128 204 227 223 227 173 162 155 152 159 168 173 174 175 178 181 185 192 196 197 198 199 199 199 198 199 202 204 206 206 204 202 204 207 208 208 210 211 212 216 219 220 221 221 225 229 232 235 235 237 238 238 240 243 246 251 256 257 257 257 256 255 255 255 258 259 261 263 268 272 276 278 277 278 280 285 292 302 308 308 309 311 319 334 345
126 124 107 140 152 186 219 202 167 152 183 179 115 220 245 232 203 177 170 163 161 165 170 174 177 179 181 183 188 193 200 203 203 203 202 201 200 200 202 203 205 207 207 207 207 208 209 210 212 214 215 217 219 221 222 223 226 228 231 234 235 239 243 243 245 249 250 253 256 250 245 249 251 250 248 249 253 255 257 261 267 276 278 277 275 274 276 282 289 298 307 312 314 314 320 330 340
295 127 153 175 146 180 217 217 200 160 166 191 174 180 245 250 190 178 174 170 168 170 173 177 179 184 185 185 189 191 198 204 208 209 205 202 202 202 203 204 205 207 209 210 209 208 209 211 213 216 218 220 221 222 224 226 228 231 233 234 235 238 242 243 244 250 250 248 250 245 241 246 248 246 243 247 251 253 257 258 259 269 271 269 273 277 280 283 282 286 299 310 308 309 315 322 328
254 58 139 173 158 177 182 174 211 170 166 194 185 164 215 215 177 177 181 176 172 174 179 182 181 187 189 188 191 192 196 202 208 210 207 205 204 205 206 207 207 208 209 211 212 212 212 213 214 216 219 221 223 224 225 227 230 234 234 234 237 240 244 244 241 245 247 244 246 246 244 245 245 245 245 247 252 255 259 256 250 259 263 262 273 280 283 281 275 277 296 308 305 306 311 317 319
182 167 143 168 175 189 193 184 186 171 174 192 186 207 216 175 167 179 187 180 178 183 183 184 185 189 192 192 196 196 199 206 207 205 206 207 206 207 208 209 209 208 209 211 213 213 214 215 215 217 219 221 223 225 226 227 231 233 232 235 240 243 246 247 244 245 245 242 245 246 245 244 244 247 251 253 257 254 251 249 248 254 255 258 271 278 280 280 277 278 292 302 305 305 307 312 313
174 173 160 171 186 206 204 196 181 168 172 196 198 212 193 166 175 182 187 185 186 191 185 187 191 191 194 195 200 201 204 211 208 203 204 206 208 208 208 209 209 208 209 209 210 211 212 213 215 217 219 222 223 224 224 225 227 230 232 233 233 234 240 245 246 247 244 238 238 241 243 244 244 249 253 256 255 245 237 237 235 234 244 262 273 278 280 280 277 277 283 292 300 301 302 310 318
168 154 153 176 191 215 208 316 247 166 170 208 197 185 183 180 184 183 183 185 191 196 193 195 195 194 197 198 203 205 209 215 207 204 205 206 208 208 207 207 208 208 209 207 207 208 210 212 214 216 219 221 223 223 222 221 221 223 225 223 223 227 234 236 235 238 237 232 233 239 242 243 247 253 249 242 238 229 218 211 207 218 258 274 275 279 281 276 273 278 283 286 291 294 299 312 328
168 151 147 182 203 218 199 357 241 173 176 228 173 143 214 202 191 185 179 188 199 198 196 198 197 198 201 202 206 208 214 216 204 203 207 206 207 207 206 205 205 206 207 207 208 209 211 213 214 217 220 220 222 223 222 221 221 222 222 224 228 231 232 232 232 234 234 232 239 248 249 247 249 248 236 223 214 203 194 191 199 234 258 264 268 275 280 276 274 278 278 278 283 291 300 313 329
167 141 139 187 206 190 193 153 156 173 198 264 138 147 248 225 194 194 191 200 207 201 198 199 196 199 205 206 207 208 212 212 205 204 205 206 207 205 203 203 204 206 207 208 209 210 212 213 215 218 220 221 221 222 222 223 224 225 228 233 235 234 234 235 236 239 239 239 243 245 245 240 229 218 209 202 193 187 188 197 211 227 243 257 262 262 265 268 264 258 263 273 286 299 305 320 343
159 138 146 199 195 177 220 192 143 150 164 181 129 106 315 196 183 214 213 213 219 211 210 209 202 205 209 207 206 208 209 208 207 208 205 205 206 204 202 202 204 205 206 206 207 209 211 214 217 219 220 222 221 220 222 225 225 226 229 233 234 233 235 236 235 235 239 238 233 227 221 209 199 193 189 188 187 189 197 206 211 218 235 251 252 246 242 242 242 247 262 274 284 294 303 329 6
183 172 159 177 187 189 205 157 136 115 68 127 113 54 312 202 183 217 217 214 222 217 210 214 217 216 214 210 210 210 210 208 206 207 206 204 204 203 203 203 203 203 204 205 206 207 210 214 217 220 222 222 221 222 222 222 221 221 221 221 222 224 226 227 223 221 222 220 218 212 200 190 189 188 185 187 190 196 202 204 207 216 227 235 239 237 232 232 235 242 261 276 275 273 297 329 353
197 212 181 173 180 181 149 134 131 124 212 213 128 86 288 232 199 211 204 204 215 214 210 215 218 217 213 211 214 214 212 210 207 206 205 204 206 204 204 204 203 203 205 206 207 208 210 214 217 220 221 221 222 222 221 219 218 217 214 210 208 208 208 210 213 213 210 208 208 202 193 189 189 189 189 192 196 197 198 198 201 209 220 226 229 229 225 230 248 270 286 313 317 266 319 330 321
192 224 186 172 162 147 145 147 141 150 209 208 169 188 268 285 227 212 199 206 213 212 216 218 217 214 209 209 214 214 211 210 209 209 204 202 205 203 203 205 204 205 207 207 207 208 210 213 217 219 221 221 222 222 220 218 216 216 215 213 212 210 208 212 216 216 212 211 207 198 194 191 190 191 194 196 196 195 193 192 196 204 213 221 229 235 234 236 250 267 276 302 7 128 60 332 310
210 215 169 159 151 151 160 159 165 178 139 133 178 179 261 278 252 206 190 206 220 221 223 221 217 215 210 209 214 212 210 208 206 207 205 203 203 202 203 205 206 207 208 206 206 207 210 213 217 220 220 220 221 221 220 219 217 216 216 217 218 219 221 224 223 215 212 214 208 201 198 194 191 193 196 196 193 191 190 189 195 203 209 220 229 231 227 219 219 223 230 237 177 140 109 61 348
227 190 152 153 156 161 167 169 185 167 106 169 227 157 183 260 280 194 181 202 223 226 224 220 216 214 210 209 212 212 210 207 204 206 207 206 205 205 204 205 207 208 207 206 206 208 210 213 216 219 219 219 220 221 220 220 220 220 219 219 221 224 228 231 225 214 209 210 206 200 195 190 189 191 193 193 190 189 191 191 195 202 210 219 220 215 210 203 202 201 197 188 160 141 134 99 78
215 145 112 96 112 136 158 172 166 100 122 212 218 181 197 258 274 175 172 204 224 227 225 220 215 212 210 209 210 211 209 205 205 206 207 209 210 208 206 206 207 208 207 207 207 208 209 212 215 217 218 218 219 220 220 220 220 220 220 220 222 225 225 224 217 207 204 203 199 193 188 185 184 185 186 189 191 192 193 194 196 202 211 213 209 206 201 194 190 184 172 160 145 136 145 132 118
140 111 86 64 54 66 83 89 94 95 196 236 211 191 197 248 261 185 181 208 214 218 226 221 213 212 211 210 208 207 206 202 202 205 207 210 210 208 206 206 208 208 208 208 207 208 209 211 214 216 219 219 219 219 219 220 220 220 221 222 224 225 222 217 207 199 196 195 193 189 186 184 184 185 186 191 194 193 193 194 197 203 206 200 197 195 187 178 173 167 162 155 150 149 163 160 171
126 103 101 106 27 30 40 11 51 125 244 253 215 187 191 239 256 215 212 220 213 212 221 215 208 208 208 209 207 203 202 198 197 202 205 206 205 203 202 205 207 206 207 207 207 208 208 211 213 216 218 218 218 219 218 219 220 221 223 223 224 224 220 214 205 198 195 192 192 190 187 186 187 188 191 193 194 193 193 193 196 202 200 194 192 190 182 174 169 169 171 173 173 189 215 217 216
129 118 112 138 256 20 105 284 80 183 244 255 176 151 184 244 249 240 233 237 228 220 222 216 208 205 203 205 204 201 198 195 196 197 199 199 197 197 199 202 204 204 206 207 206 207 208 211 213 214 217 217 217 217 217 218 219 221 222 221 222 221 218 214 208 202 198 196 194 191 190 190 190 190 192 192 193 193 193 195 197 204 205 199 198 197 191 187 186 185 186 193 209 235 246 246 248
153 149 140 156 167 161 210 236 359 223 257 283 144 153 204 268 259 244 235 235 231 226 229 226 213 200 201 204 200 195 196 195 196 195 195 197 196 196 198 200 202 204 206 206 205 206 207 210 212 214 217 217 216 216 216 217 219 220 221 220 220 218 215 213 209 205 202 199 197 196 196 196 195 194 193 192 194 195 197 201 205 211 211 204 203 206 203 200 201 197 199 219 247 262 260 257 260
179 165 147 162 163 170 209 198 184 211 244 330 120 160 193 206 245 242 234 238 231 228 240 241 223 190 191 199 194 192 197 196 196 197 196 196 195 196 198 199 201 203 205 205 206 207 207 209 212 213 216 216 215 215 214 215 217 219 219 218 218 217 214 212 210 209 207 203 201 200 201 201 199 198 197 197 200 200 201 204 208 214 215 209 206 210 208 205 211 214 227 256 275 283 277 269 269
209 147 133 186 183 164 188 187 180 177 143 108 174 212 217 212 273 288 278 277 243 226 237 235 222 182 168 185 191 191 197 196 196 197 198 197 195 196 198 200 202 203 204 205 207 208 208 210 212 213 216 216 215 213 213 215 216 217 217 217 217 214 213 211 209 209 209 206 204 203 202 203 202 202 202 203 205 204 204 206 210 216 221 218 214 217 219 219 226 235 249 267 278 288 290 286 284
182 145 179 209 167 141 153 219 164 123 184 244 190 239 283 304 295 294 279 278 263 240 228 223 216 177 167 190 192 189 196 196 196 196 196 196 193 196 198 199 200 201 203 206 209 210 211 211 212 214 216 216 215 214 213 214 215 217 216 216 216 213 212 212 210 208 208 207 206 204 203 203 202 203 204 207 209 208 207 210 216 222 226 225 221 226 234 238 244 249 257 265 271 278 283 284 284
135 183 199 170 98 108 123 190 27 77 225 263 192 208 238 173 281 304 288 239 251 251 231 221 208 174 186 199 190 190 196 194 195 196 196 196 193 195 197 199 200 201 203 207 210 212 213 214 214 214 216 215 215 214 213 213 214 215 215 215 215 214 214 214 212 210 207 204 204 204 205 204 203 203 206 209 210 209 209 213 221 226 228 229 228 229 234 243 250 254 259 262 265 271 275 274 273
148 184 175 140 148 210 138 170 186 155 215 263 284 248 235 198 223 281 261 227 235 242 228 212 199 190 200 203 191 192 192 190 194 196 197 197 194 196 197 199 202 203 205 209 212 213 214 217 217 217 218 218 216 214 212 213 214 214 215 217 216 215 215 213 211 209 207 205 204 203 205 206 205 205 208 210 210 209 213 219 226 229 229 232 233 231 233 241 248 252 257 260 262 268 271 269 268
69 118 154 149 165 177 181 172 169 187 206 227 276 284 252 229 216 216 224 227 230 227 215 211 207 202 206 200 188 190 189 189 192 194 197 195 194 197 198 199 201 203 207 210 211 212 214 217 218 218 219 219 217 216 214 214 214 214 216 217 215 213 213 211 209 208 207 205 205 206 209 208 206 208 211 212 213 215 219 222 225 227 228 233 234 232 236 243 248 251 255 260 263 266 269 270 272
133 157 175 180 120 134 186 180 137 155 173 178 205 241 254 247 211 200 218 228 224 214 209 215 213 207 204 191 183 191 192 192 193 193 196 194 194 198 200 202 203 204 208 210 210 211 214 216 216 217 217 216 216 216 215 214 214 213 214 214 212 210 210 209 208 207 207 206 206 211 214 211 207 209 211 213 217 219 220 219 220 225 230 236 236 236 243 247 247 249 253 260 265 268 273 276 277
166 183 181 176 164 130 180 241 235 130 161 176 182 214 256 250 199 200 218 222 221 215 210 217 215 201 195 189 191 194 190 191 194 193 193 192 194 197 199 202 203 204 208 209 210 212 214 215 215 216 215 215 215 215 214 214 212 211 211 212 210 209 209 208 206 205 206 206 208 214 215 212 209 208 209 213 217 217 216 217 221 227 233 237 239 241 245 244 244 250 255 260 265 272 277 277 276
Height
761 764 763 763 760 761 764 765 781 786 788 807 804 802 798 786 787 790 793 791 791 790 783 785 785 787 791 798 803 802 804 804 805 811 815 808 804 808 809 811 812 809 809 810 811 813 814 815 816 816 817 818 819 820 821 822 824 825 825 827 828 830 831 832 834 834 835 836 837 837 837 838 839 840 841 841 841 841 841 842 842 842 843 843 844 844 844 845 845 845 845 846 846 846 846 847 847
762 764 764 764 761 764 770 771 791 798 799 815 806 800 796 785 790 795 794 792 793 789 783 786 788 790 792 794 796 800 805 802 799 800 802 803 806 809 809 812 812 809 809 809 810 812 814 814 816 817 818 819 821 821 823 824 825 826 827 829 830 831 832 834 835 836 836 837 837 838 838 839 840 841 842 842 842 843 843 843 843 843 844 844 845 845 845 846 846 846 847 847 848 848 849 849 849
762 764 765 768 766 768 776 779 795 806 813 822 810 797 792 794 798 796 793 790 789 785 784 786 789 792 794 798 798 804 809 803 798 798 801 804 806 809 811 812 812 810 808 808 810 812 814 815 817 818 819 821 822 823 824 825 826 827 829 830 832 833 834 835 836 837 837 838 838 839 839 840 841 842 843 843 843 844 844 844 844 845 845 846 846 846 847 847 847 848 848 849 850 851 851 851 851
761 764 765 767 771 776 782 789 795 804 817 819 813 800 793 799 798 794 791 787 785 783 785 788 794 793 794 804 803 805 809 804 800 799 802 805 806 809 811 813 814 812 809 809 811 814 815 816 818 819 821 822 823 824 825 826 828 829 830 831 833 834 836 837 838 838 838 839 839 840 841 842 842 843 844 844 845 845 846 846 846 846 846 847 847 848 848 848 849 849 849 850 851 853 853 852 851
761 763 764 764 774 781 783 791 793 801 810 808 809 802 794 797 794 794 790 787 785 785 787 790 799 796 793 801 801 807 809 804 802 800 802 804 806 809 811 813 814 813 811 810 812 815 816 817 819 820 822 823 824 825 826 827 829 830 832 833 835 836 837 838 839 839 840 841 841 842 843 844 844 845 845 846 846 847 848 848 848 848 848 849 849 849 849 849 849 850 850 851 853 854 854 851 850
760 762 762 763 771 776 782 793 796 799 797 793 801 799 793 792 790 792 790 789 786 786 788 790 797 797 800 801 799 805 804 803 803 801 801 804 806 808 811 813 814 815 814 812 813 815 817 818 820 822 823 825 826 827 828 829 830 832 833 835 836 838 839 839 840 841 842 843 844 845 845 846 847 847 848 848 848 849 849 849 850 850 850 850 850 850 850 850 849 850 851 852 853 854 853 850 849
760 764 766 769 774 775 787 796 797 799 791 785 793 793 790 789 787 789 791 792 792 790 789 792 793 797 806 803 802 803 800 802 802 802 802 803 806 808 811 813 815 816 816 816 815 816 818 819 821 823 824 826 827 828 830 831 832 834 835 836 838 839 840 840 841 843 843 844 846 847 847 848 849 849 849 849 850 850 850 851 851 851 851 851 851 851 851 850 850 850 851 852 853 854 853 850 850
760 766 769 777 784 783 792 796 794 796 789 783 785 786 786 786 786 788 791 794 796 795 793 794 790 800 810 803 808 806 800 803 802 803 804 804 807 808 812 813 815 817 818 819 818 819 820 821 823 824 826 828 829 830 832 832 834 835 836 837 839 840 841 842 843 844 845 846 847 848 849 849 850 850 850 851 851 851 851 852 852 852 852 852 852 852 851 851 850 850 851 852 853 853 853 851 851
760 767 772 780 788 790 795 798 796 793 789 785 784 784 783 783 785 787 792 794 794 795 796 794 790 803 811 806 811 806 801 804 803 805 805 807 808 809 812 813 816 817 819 820 821 822 822 824 825 826 827 829 830 831 833 834 835 836 837 838 840 841 842 843 844 845 846 847 848 849 849 850 850 851 851 851 852 852 852 852 852 852 852 853 853 852 852 851 850 850 851 852 852 853 853 852 852
764 769 775 783 789 797 802 801 799 794 790 787 785 784 783 782 784 787 791 795 794 796 797 792 794 804 809 810 812 806 805 805 804 807 807 809 810 811 813 813 816 817 820 821 822 823 823 825 826 828 829 830 831 832 834 835 836 837 838 839 840 841 843 844 845 846 847 848 849 849 850 850 851 851 852 852 852 852 852 852 852 852 852 853 853 853 852 851 851 851 851 851 852 852 852 852 852
772 773 775 785 793 802 805 803 800 796 791 787 787 783 782 782 785 790 791 795 795 797 797 794 801 805 806 812 812 807 806 806 806 808 808 810 811 812 813 815 817 818 820 821 822 824 824 826 827 829 829 831 832 833 834 835 837 838 839 840 841 842 843 845 846 847 848 849 849 850 851 851 851 851 852 852 852 852 852 852 852 852 852 853 853 853 852 852 851 851 851 851 852 852 851 852 852
777 780 776 787 797 800 801 803 801 797 793 791 791 784 781 783 787 792 792 796 797 799 797 794 801 802 809 815 811 808 806 807 808 808 810 811 812 814 815 816 818 819 821 822 823 825 826 827 828 830 831 832 833 834 835 836 837 838 839 840 842 843 844 846 847 848 848 850 850 851 851 851 852 852 852 852 852 853 853 853 853 853 852 853 853 853 852 852 851 850 851 851 851 851 851 851 851
776 780 778 788 795 797 798 801 800 799 799 794 791 783 780 785 788 790 792 795 797 800 797 792 794 797 810 815 810 809 808 808 809 810 811 811 814 815 817 818 819 821 822 823 824 825 827 828 829 831 832 833 834 835 836 837 838 839 840 841 843 844 845 846 847 849 849 850 851 851 851 852 852 852 852 852 853 853 853 853 853 853 853 853 853 852 852 851 851 850 850 851 851 851 850 850 851
772 774 777 789 794 794 796 800 800 802 804 792 786 783 782 785 785 785 788 797 799 796 793 788 789 798 810 814 814 812 808 809 809 811 812 813 815 816 818 819 821 822 823 824 825 826 827 828 830 831 832 834 835 836 837 838 839 840 842 843 844 845 846 847 848 850 850 851 851 852 852 852 852 853 853 853 853 853 853 853 853 853 853 853 853 852 852 851 851 850 850 850 850 850 849 849 850
768 771 775 788 794 793 795 797 798 802 801 789 784 783 783 784 782 784 785 793 798 789 788 789 788 798 807 810 813 808 805 808 809 811 812 814 816 817 819 820 822 822 823 825 825 827 828 829 830 832 833 834 835 836 838 839 840 841 843 844 845 846 847 848 849 850 851 851 852 852 852 852 853 853 853 853 853 853 853 854 853 853 853 853 853 853 852 852 851 850 850 849 849 849 848 848 849
762 768 779 789 793 795 794 793 796 802 797 786 783 780 787 787 781 787 783 783 792 788 788 792 789 794 800 802 803 802 804 807 809 811 812 815 816 818 820 820 822 823 824 825 827 828 828 830 831 832 834 835 836 837 838 839 841 842 843 845 846 847 848 849 850 851 851 852 853 853 853 853 853 853 853 853 853 854 854 854 854 854 854 854 854 853 853 852 851 850 849 849 849 848 848 847 848
760 771 785 791 793 794 790 791 794 795 790 785 783 780 789 792 783 784 780 780 790 791 791 792 790 790 794 796 798 800 804 807 809 811 812 815 816 818 820 821 822 823 825 826 827 829 829 831 832 833 834 835 837 837 839 840 841 843 844 845 846 847 848 850 850 851 852 852 853 853 853 853 853 854 853 853 853 854 854 854 855 854 854 854 854 854 853 853 852 851 850 849 848 848 848 847 848
765 780 789 790 791 787 779 781 782 781 784 784 781 781 786 791 787 783 784 790 792 794 794 793 792 791 793 795 797 801 804 806 808 810 812 814 815 817 819 821 822 823 824 826 828 829 830 831 832 834 834 835 837 838 839 840 842 843 844 845 846 847 848 850 851 851 852 852 853 853 853 854 854 854 853 853 853 854 854 855 854 854 854 854 854 853 853 853 852 851 850 849 849 848 848 848 848
768 779 787 786 782 776 767 770 772 772 779 780 779 780 783 786 785 783 790 798 795 798 800 797 799 797 796 796 798 802 803 806 808 809 811 812 814 816 818 820 822 823 824 825 827 829 830 832 833 834 835 836 837 838 840 840 842 842 844 845 846 847 848 850 851 851 852 852 853 853 854 854 854 854 853 853 853 854 854 854 854 854 854 854 853 853 853 852 852 851 850 850 849 849 848 848 848
765 773 785 778 769 768 764 765 766 766 770 777 781 780 784 785 781 782 791 798 797 800 800 799 804 802 799 797 797 801 802 805 807 809 811 812 814 814 816 818 820 821 823 825 827 829 831 832 833 834 835 837 838 839 840 841 842 843 844 845 846 847 848 849 850 851 852 852 853 853 854 854 854 854 854 854 853 853 853 854 854 853 853 853 853 853 852 852 851 851 850 850 849 849 849 848 848
763 768 776 767 760 766 763 762 762 763 766 773 779 781 786 784 779 784 790 799 802 798 792 790 796 798 798 797 797 800 802 804 806 808 810 812 814 814 815 817 819 821 822 825 827 829 830 832 833 834 835 836 838 839 840 841 842 843 844 845 847 847 849 849 850 851 851 852 853 853 854 854 854 854 854 854 853 853 853 853 853 853 853 853 852 852 852 852 851 851 850 850 850 849 849 848 848
762 763 761 756 757 764 761 758 760 762 766 771 778 782 784 781 781 784 786 795 796 787 784 784 786 790 793 794 796 798 801 803 805 808 810 811 813 814 816 817 819 821 822 825 826 828 829 831 832 833 835 836 837 838 839 841 842 843 844 845 847 848 849 849 850 850 851 851 852 853 853 853 854 854 853 853 853 853 853 853 853 853 853 852 852 852 852 851 851 850 850 850 849 849 849 848 848
762 762 754 754 754 758 757 757 759 761 767 773 775 776 777 782 786 783 783 786 781 775 778 782 783 785 789 792 794 797 798 801 803 806 808 809 811 812 814 816 818 819 821 823 825 827 828 830 831 832 834 835 837 838 839 840 841 843 844 845 846 847 848 849 849 849 850 851 851 852 852 852 853 853 853 852 852 852 852 852 852 852 852 852 852 852 851 851 850 850 850 849 849 849 849 849 848
760 761 754 753 751 753 753 754 758 760 765 768 769 773 778 783 785 783 784 781 775 774 777 781 784 786 789 793 794 796 797 799 801 804 806 807 809 810 812 814 816 818 819 821 824 825 827 828 830 831 833 834 836 837 838 839 840 841 843 844 845 846 847 847 848 848 849 850 850 851 851 851 852 852 852 851 852 852 852 852 852 852 852 852 852 852 851 850 850 849 849 849 849 849 849 848 848
758 758 752 751 751 752 750 752 758 760 764 765 769 776 778 777 778 782 784 780 775 775 778 782 785 788 790 793 795 796 798 800 802 804 806 807 808 810 812 813 815 816 817 819 822 824 826 827 828 830 831 833 834 835 837 838 839 840 841 843 844 845 846 846 847 847 848 849 849 849 850 850 850 851 851 850 851 851 851 851 851 851 851 852 851 851 851 851 850 849 849 849 849 849 848 848 847
754 752 750 750 752 751 751 754 759 762 764 766 773 780 779 774 777 785 783 778 777 776 780 784 786 790 792 793 794 796 798 799 801 803 805 807 809 810 811 813 814 814 816 818 821 823 824 826 827 829 830 832 833 834 835 837 838 839 840 841 843 844 844 845 846 846 847 847 847 848 849 849 849 849 849 850 850 850 850 850 850 851 851 851 851 851 851 851 850 850 849 849 849 848 848 848 847
745 747 749 750 752 752 752 757 760 763 765 766 774 783 780 775 780 789 783 775 776 779 784 786 787 791 791 793 794 795 797 798 800 802 804 806 807 808 809 811 813 814 816 818 820 822 824 826 827 828 830 831 832 833 834 836 837 838 839 840 842 842 843 844 844 845 845 846 846 846 847 847 848 848 848 849 849 849 849 849 849 850 850 851 851 851 851 851 850 850 850 849 849 848 848 847 846
742 746 753 755 754 755 755 759 763 764 769 768 772 783 784 780 783 785 779 775 776 780 787 787 789 791 791 792 793 794 796 797 800 801 802 804 804 806 807 809 811 813 815 817 819 821 823 825 826 827 829 830 831 832 834 835 836 837 838 839 840 841 842 843 843 844 844 844 845 845 845 845 846 846 847 847 847 848 848 848 849 849 849 850 850 850 850 850 850 849 849 848 848 847 847 847 846
743 744 759 765 759 763 762 762 763 764 772 769 771 791 795 787 785 780 775 775 776 781 787 788 789 791 791 792 793 795 796 797 799 800 800 802 804 805 806 808 810 813 814 816 818 820 822 823 825 826 828 829 830 831 832 833 834 836 837 838 839 840 841 841 842 842 842 843 843 843 844 844 845 845 846 847 847 847 848 848 848 848 849 849 849 849 849 849 848 848 848 848 848 847 847 846 846
747 748 759 770 773 776 767 763 764 767 773 764 771 801 803 788 783 778 775 776 779 785 788 789 790 791 792 792 793 795 795 796 797 798 800 801 804 805 806 808 809 811 813 815 817 818 820 822 823 825 826 827 828 830 831 832 833 834 836 837 838 839 839 840 840 841 841 842 842 843 843 844 844 845 845 846 846 847 847 847 847 847 848 848 848 848 848 848 847 847 847 847 847 847 846 846 845
754 757 762 772 784 784 768 764 768 772 774 763 773 800 798 786 783 778 776 775 780 786 788 789 791 791 792 792 793 794 793 794 795 797 799 800 803 804 805 807 808 810 812 814 815 817 819 820 822 823 824 826 827 828 830 831 832 833 835 836 836 837 837 838 838 839 840 840 841 842 842 843 843 843 844 845 845 845 846 846 846 847 847 847 847 847 847 847 847 847 846 846 846 846 846 845 845
758 767 778 780 784 785 772 765 766 772 774 766 778 797 794 786 783 778 776 777 780 785 788 788 790 791 791 792 793 794 793 793 795 796 797 799 801 803 804 806 808 809 811 812 814 816 818 819 821 822 823 825 826 827 829 830 831 832 834 835 835 836 836 837 837 838 839 839 840 841 841 841 841 841 842 843 843 843 844 844 845 845 846 846 846 846 846 846 846 846 846 845 845 845 844 844 844
764 769 783 784 784 789 781 770 764 766 773 773 780 792 793 787 781 778 776 778 782 786 788 788 789 790 790 791 792 793 794 793 794 794 795 797 799 801 803 805 807 808 810 812 813 815 817 818 820 821 822 824 825 826 828 829 830 831 833 834 835 835 835 835 836 837 837 838 838 839 839 839 839 839 840 841 842 842 843 843 844 844 845 844 844 844 844 844 845 845 845 845 844 843 843 843 842
774 771 778 780 781 788 787 777 767 765 773 779 781 786 789 785 780 779 777 778 782 786 788 788 789 790 789 790 791 792 793 793 793 792 794 796 797 799 801 803 805 807 809 810 812 814 815 817 818 820 821 822 824 825 826 828 829 831 832 833 834 834 833 833 835 836 835 836 837 837 837 838 838 838 839 840 841 841 842 843 843 843 843 843 843 842 842 843 844 844 844 844 844 843 842 842 841
775 774 777 781 781 784 786 777 767 766 774 780 783 786 786 784 781 780 778 778 782 785 786 787 787 789 789 790 791 791 792 791 789 790 792 794 796 798 800 802 803 805 807 809 811 813 814 816 817 818 820 821 823 824 825 827 828 830 830 831 832 832 832 832 833 834 834 835 836 836 836 837 837 838 838 839 840 840 841 842 843 842 842 842 842 842 842 842 843 843 843 843 843 842 841 841 841
767 766 770 779 780 780 777 769 761 763 775 780 783 785 785 785 783 781 780 778 782 784 784 786 787 787 788 790 790 790 791 789 787 788 790 792 794 796 798 800 802 803 805 807 809 811 813 815 816 817 818 820 821 823 824 826 827 828 829 830 831 831 831 831 832 832 833 834 834 835 835 835 836 836 837 838 839 839 840 841 841 841 841 841 841 841 841 842 842 842 843 842 842 842 841 841 841
760 764 770 774 778 779 773 770 764 761 775 782 780 783 786 786 783 780 780 781 784 785 785 786 786 786 787 788 789 789 788 785 785 787 789 790 792 794 797 799 801 802 804 806 808 809 811 813 814 815 817 818 819 821 823 824 826 827 828 829 829 830 830 831 831 831 832 832 833 833 833 834 834 835 836 837 838 838 839 840 840 840 840 841 841 841 841 841 841 842 842 842 841 841 840 840 840
758 764 771 774 778 779 773 771 768 763 775 784 781 785 788 786 785 781 780 783 782 781 783 784 784 785 785 786 787 787 786 784 785 787 787 789 791 792 795 797 799 800 802 804 805 807 809 811 813 814 815 817 818 820 821 823 824 825 826 827 828 829 829 830 830 830 830 831 831 832 832 832 833 834 834 835 836 837 838 839 839 839 839 840 840 840 841 841 841 841 841 841 841 841 840 839 840
759 764 771 776 775 776 772 768 768 769 777 786 785 788 790 786 784 782 780 780 778 776 778 780 782 784 784 784 785 785 785 786 786 786 786 787 789 791 793 795 796 798 800 802 803 805 808 809 811 812 814 815 816 819 820 821 823 824 826 827 827 828 828 829 829 829 830 830 830 830 831 831 832 833 833 834 835 836 837 838 838 838 838 838 839 839 840 840 840 841 841 841 840 840 840 839 839
760 763 770 774 771 775 778 774 773 772 777 785 786 790 791 787 785 784 780 777 778 778 778 778 779 780 780 779 781 783 784 785 785 785 785 786 787 789 791 792 794 796 798 800 802 804 805 807 808 810 811 813 815 817 819 820 822 824 825 826 827 827 827 828 828 829 829 829 829 829 830 830 831 831 832 833 834 835 835 836 836 837 837 838 838 838 839 839 840 840 840 840 839 840 839 839 838
761 759 764 768 767 769 771 774 775 775 780 782 785 797 796 788 790 787 779 778 779 778 778 779 778 776 776 778 779 779 780 781 783 784 783 784 785 786 788 790 792 794 796 797 799 801 803 804 806 808 809 810 813 815 816 818 820 822 823 825 826 826 826 827 827 827 827 828 828 828 829 829 830 830 831 832 833 834 834 835 835 836 836 837 837 837 838 838 838 839 839 838 838 839 839 838 838
765 759 755 755 758 763 767 771 776 788 795 782 784 807 804 789 791 787 780 781 780 778 779 778 776 774 776 778 777 776 776 777 779 779 781 782 783 785 786 788 790 791 792 794 796 798 800 802 804 805 807 808 811 812 814 816 817 819 820 822 823 823 824 824 824 825 825 826 826 826 827 828 829 829 830 831 832 832 833 833 834 835 836 836 836 837 837 837 837 837 837 837 837 838 838 838 838
766 755 746 748 752 760 769 771 777 794 798 778 776 800 804 793 789 784 779 782 780 778 778 775 774 773 773 775 773 773 774 774 775 776 777 779 780 783 784 785 787 788 789 791 794 796 798 800 802 803 804 806 808 810 812 813 815 816 817 819 820 820 821 821 822 823 823 824 825 825 826 826 827 828 829 830 831 832 832 833 834 834 835 835 835 836 836 836 837 836 837 836 836 836 837 837 837
759 745 740 748 753 759 767 769 774 780 781 779 777 786 800 796 782 777 778 783 783 779 777 773 770 769 769 769 769 768 769 769 772 774 774 775 776 778 779 781 783 784 787 790 792 794 796 798 800 801 803 804 806 808 810 811 812 814 815 816 817 818 818 819 820 821 822 823 824 824 825 825 826 827 828 829 830 831 832 832 833 833 834 834 835 835 835 835 836 836 836 836 835 835 835 836 836
745 738 740 746 750 756 760 765 772 771 778 795 791 785 802 798 777 775 778 782 785 777 771 768 764 764 763 764 764 763 764 765 767 770 770 771 772 773 775 777 780 782 785 788 789 792 794 796 798 799 800 802 804 806 807 809 810 811 813 814 815 816 817 818 819 820 820 821 822 823 823 824 825 826 828 829 830 831 831 832 832 833 833 834 834 834 834 834 834 834 834 834 834 834 834 834 835
734 735 741 744 750 756 760 767 772 775 786 800 794 787 800 797 778 781 786 783 780 768 760 758 756 758 758 758 759 758 760 762 763 765 766 767 768 770 773 776 778 781 783 785 787 789 791 793 795 796 798 799 801 803 805 806 808 809 811 812 813 814 815 816 818 818 819 820 821 821 822 823 824 826 827 828 829 830 831 832 832 832 833 833 833 833 833 833 833 833 833 833 833 833 834 834 834
729 735 742 750 758 760 766 770 771 788 800 793 784 782 790 793 780 779 780 767 757 753 751 751 751 753 753 751 752 753 756 758 760 761 762 764 766 769 773 775 776 779 781 783 785 787 789 791 792 794 795 797 798 800 802 803 805 806 807 809 810 811 812 814 815 816 817 818 819 820 821 823 824 825 826 828 829 830 830 831 831 832 832 832 832 832 832 832 832 832 832 832 833 833 833 833 833
727 736 743 756 768 769 777 781 779 800 808 784 775 778 789 797 778 764 759 743 737 742 742 743 744 744 744 744 746 747 750 753 756 758 760 762 765 768 771 772 774 776 778 780 782 784 786 788 789 790 792 793 795 797 798 800 801 803 804 805 806 808 809 811 812 813 815 816 817 819 820 822 823 824 826 827 828 829 829 830 831 831 831 831 832 831 831 831 831 831 831 831 832 832 833 833 833
732 739 748 765 781 785 793 799 798 805 798 775 773 780 791 792 765 750 751 741 736 734 728 729 732 734 737 738 740 742 746 749 751 754 756 759 761 764 766 768 770 772 774 776 778 780 782 784 786 787 787 789 791 793 795 796 797 799 800 801 803 805 807 808 809 811 812 814 815 817 818 820 821 823 824 825 826 827 828 829 829 829 830 830 831 831 831 831 831 830 831 831 831 832 832 832 833
740 743 751 768 785 796 805 810 810 805 787 773 776 781 788 783 755 739 740 733 728 725 719 720 723 727 731 732 734 739 741 744 746 749 751 754 756 758 761 763 766 767 769 772 774 776 778 780 782 783 783 786 787 789 791 792 794 795 797 799 800 802 804 805 807 808 810 812 813 814 816 818 819 821 822 824 824 825 826 827 827 828 828 829 829 830 830 830 830 830 830 830 830 831 831 831 832
740 736 741 756 768 780 794 800 798 791 783 783 786 784 784 774 747 728 723 718 718 719 718 719 722 725 727 729 734 737 739 740 742 744 746 748 750 753 756 758 761 763 765 768 771 772 774 776 777 778 779 781 783 785 787 788 791 793 795 797 799 801 802 804 805 807 808 809 811 812 814 816 818 819 821 822 823 824 824 825 826 826 826 827 828 829 829 829 829 829 829 829 829 829 830 830 831
738 731 737 749 747 752 770 780 776 774 781 789 788 778 765 751 731 720 720 718 716 718 718 720 722 723 725 729 732 733 735 737 738 740 743 744 746 749 752 755 757 760 763 765 767 769 770 771 772 773 774 777 779 781 783 785 788 791 793 795 797 799 801 802 803 805 807 808 809 811 813 815 816 818 819 821 821 822 823 824 824 824 825 826 826 827 828 828 828 828 828 828 828 828 828 828 829
736 737 740 740 732 735 758 775 774 774 781 784 781 770 755 747 734 719 719 720 716 718 718 717 719 721 725 727 727 729 731 731 733 735 737 739 742 745 747 750 753 756 760 761 762 764 764 766 768 769 771 774 776 778 780 783 785 788 790 792 795 796 798 799 801 803 805 807 808 809 811 813 814 816 817 818 819 820 821 822 822 823 823 824 825 825 826 826 827 827 826 826 826 827 827 827 827
728 738 733 730 733 736 748 769 780 785 786 780 777 770 758 760 750 724 720 723 717 715 716 717 719 722 723 721 721 723 724 725 728 730 732 734 737 740 743 746 748 751 753 755 757 759 761 763 765 766 768 770 772 774 776 780 782 785 788 790 792 794 795 797 798 801 803 805 806 808 809 810 812 814 815 816 817 818 819 820 821 822 822 823 823 824 824 825 825 826 825 825 825 825 825 826 826
712 719 716 724 745 752 752 765 777 787 790 780 775 773 763 759 748 726 722 723 713 711 716 719 720 718 716 715 716 718 719 723 726 727 730 731 733 736 739 742 745 747 750 751 753 757 760 762 764 765 767 768 771 773 775 778 780 782 785 786 788 790 792 793 796 798 800 801 803 805 806 808 810 811 812 813 814 815 816 818 819 820 821 821 822 823 823 824 824 824 824 824 824 824 824 824 824
708 713 716 720 733 742 746 752 757 768 783 781 775 776 765 747 733 720 715 713 709 711 714 715 714 711 709 709 712 716 717 719 721 723 725 726 728 731 734 737 740 742 745 747 750 755 757 759 761 763 765 768 770 772 773 775 777 778 781 782 783 786 788 790 793 795 797 799 801 803 804 806 807 808 809 811 812 813 815 816 817 819 820 820 821 821 822 822 822 823 823 823 823 823 823 823 823
718 722 729 727 726 733 738 743 745 749 766 774 772 774 756 727 716 712 705 701 703 706 706 706 706 705 704 706 709 711 713 714 716 717 720 722 724 727 729 733 735 738 742 744 748 751 752 755 758 759 762 765 766 768 769 771 772 774 776 778 780 782 784 787 789 791 794 796 798 800 802 803 804 805 807 809 811 812 814 815 816 817 819 819 820 820 820 820 821 821 821 822 822 822 822 821 821
713 718 725 725 725 733 743 752 750 742 749 757 758 762 742 709 703 705 698 695 696 699 701 700 701 702 702 703 703 705 708 710 711 712 715 718 720 723 727 730 734 737 740 742 745 747 749 751 753 755 758 760 761 763 764 766 768 770 772 774 776 779 780 782 785 788 791 794 796 798 799 801 802 803 805 807 810 812 813 814 815 816 817 818 818 818 819 819 819 820 820 820 820 821 820 820 819